sat.trackr.live / text

‹ back to catalog

STARLINK-34009

NORAD 63849 · 2025-093P

PAYLOAD ACTIVE UNKNOWN

§ Identity

Operator
Country
US
Launch date
2025-05-07
Launch site
AFETR
Launch vehicle
Mass (kg)
RCS (m²)

Purposes: comms

External: N2YO · Heavens-Above · Gunter

§ Orbital elements

Epoch: 2026-05-25T00:33:08.870112Z

Period
94.27 min
Inclination
43.0008°
Eccentricity
0.0001328
Mean motion
15.27592242 rev/d
Perigee alt
482.1 km
Apogee alt
483.9 km
Semi-major
6,861.1 km
B*
9.1764e-4
RAAN
3.5833°
Arg perigee
284.2317°
Mean anomaly
75.8387°
Rev number
5,968

§ Raw data

STARLINK-340091 63849U 25093P   26145.02301933  .00025085  00000+0  91764-3 0  99972 63849  43.0008   3.5833 0001328 284.2317  75.8387 15.27592242 59685

JSON: /api/v1/satellites/63849 · /tle

For live sub-satellite position, see the globe view (requires WebGL).

§ Visibility from observer

Set your observer location to see the next 7 days of passes ≥ 10°. The values pass through the URL so the page stays shareable.

No JS? Fill the form by hand. The geolocation button needs JavaScript.